Location: *
(57.8420°S, 159.8600°W)
Time: 05:22:46
(UTC+00:00)

ALOS - Pass Details

Date: 18 May 2021
Orbit: 682 x 685 km, 97.9° (Epoch: 18 June)

Event Time Altitude Azimuth Distance (km) Brightness Sun altitude
Rises 04:06:04 0° 167° (SSE) 3,102 5.4 -12.6°
Reaches altitude 10° 04:08:26 10° 174° (S) 2,179 4.6 -12.9°
Maximum altitude 04:12:54 41° 242° (WSW) 1,020 3.6 -13.5°
Drops below altitude 10° 04:17:19 10° 311° (NW) 2,158 5.9 -14.1°
Sets 04:19:38 0° 318° (NW) 3,067 6.6 -14.4°
